[[{"header":{"parameterUnit":"m.s-1","parameterCategory":1,"la1":30.2991,"la2":30.254,"lo1":-89.0895,"lo2":-89.0444,"dy":0.0017,"dx":0.0017,"nx":28,"ny":28,"refTime":"2023-08-25T03:00:00:Z","depth":0,"parameterNumber":2,"parameterNumberName":"U-component_of_WINDS"},"data":[0,0,0,0,0,0,0,0,0,0,0,0,0,0,0,0,0,0,0,0,0,0,0,0,0,0,0,0,0,0,0,0,0,0,0,0,0,0,0,0,0,0,0,0,0,0,0,0,0,0,0,0,0,0,0,0,0,0,2.5736,2.5737,0,2.5786,2.5787,2.5787,2.5737,2.5735,2.5733,2.5731,2.5788,2.5791,2.5794,0,0,0,0,0,0,0,0,0,0,0,0,0,2.5605,2.5607,2.5736,2.5737,2.5737,2.5786,2.5787,2.5787,2.5737,2.5734,2.5732,2.573,2.5787,2.5791,2.5795,0,0,0,0,0,0,0,0,0,0,0,0,0,2.5659,2.5608,2.5736,2.5718,2.5717,2.5786,2.5787,2.5788,2.5737,2.5734,2.5731,2.5729,2.5785,2.579,2.5795,2.5886,0,0,2.5811,2.5813,0,0,0,0,0,0,0,0,2.5656,2.5664,2.572,2.5719,2.5718,2.5752,2.5761,2.5821,2.5738,2.573,2.5731,2.5727,2.5779,2.5784,2.58,2.5889,2.5892,2.5811,2.5814,2.5816,2.5818,0,0,0,0,0,0,0,2.5652,2.5662,2.5756,2.5721,2.572,2.571,2.5714,2.5772,2.5771,2.573,2.5727,2.5733,2.5778,2.5795,2.5801,2.5892,2.5811,2.5816,2.5819,2.5821,2.6063,2.6066,0,0,0,0,0,0,2.565,2.5659,2.5754,2.5757,2.5679,2.5715,2.5719,2.5744,2.577,2.5771,2.5735,2.573,2.5788,2.5795,2.5803,2.5914,2.5816,2.5821,2.5824,2.6059,2.6064,2.6067,0,0,0,0,0,0,2.5647,2.5659,2.5752,2.5707,2.5718,2.572,2.5748,2.5747,2.5764,2.5774,2.5774,2.5753,2.5786,2.5796,2.5866,2.5915,2.5823,2.5828,2.6055,2.6061,2.6065,2.6135,0,0,0,0,0,0,2.5643,2.5658,2.5691,2.5708,2.5721,2.5813,2.5751,2.575,2.5773,2.5766,2.5791,2.5792,2.5785,2.5859,2.5872,2.592,2.5832,2.6051,2.6058,2.6064,2.6128,2.6142,2.6153,0,0,0,0,0,2.5639,2.5709,2.5692,2.5704,2.5761,2.5816,2.5823,2.5812,2.5777,2.5811,2.5818,2.5791,2.5908,2.5867,2.588,2.5931,2.6048,2.6056,2.6063,2.6123,2.6139,2.6153,0,0,0,0,0,0,2.5698,2.571,2.5693,2.577,2.5792,2.5807,2.5849,2.5829,2.5863,2.5856,2.5842,2.5848,2.5924,2.5934,2.5889,2.6023,2.5972,2.5983,2.6013,2.6029,2.6041,2.6037,2.5836,0,0,0,0,0,2.5719,2.576,2.577,2.5837,2.5849,2.5848,2.5871,2.586,2.5884,2.5893,2.5905,2.593,2.5973,2.6001,2.6041,2.6129,2.6136,2.6172,2.6184,2.6194,2.6204,2.6255,2.6272,2.6092,2.6092,2.6092,0,0,2.5765,2.5777,2.5804,2.5849,2.5865,2.5911,2.5856,2.5905,2.594,2.5901,2.5969,2.5979,2.6006,2.6087,2.6124,2.6099,2.6255,2.6204,2.6212,2.6216,2.6265,2.6282,2.6297,2.6097,2.6097,2.6096,0,0,2.5872,2.5884,2.5942,2.596,2.5984,2.5983,2.5998,2.6017,2.6021,2.6088,2.6061,2.6104,2.6176,2.6198,2.6219,2.6337,2.6315,2.6351,2.6416,2.6466,2.648,2.6493,2.6538,2.6554,2.636,2.636,2.6361,0,2.5926,2.5991,2.5975,2.6028,2.605,2.6016,2.6078,2.6096,2.6133,2.6151,2.6122,2.6214,2.623,2.6318,2.6347,2.6364,2.6382,2.6348,2.6479,2.6492,2.6503,2.6546,2.6562,2.6365,2.6364,2.6364,2.6363,0,2.6058,2.6103,2.6148,2.6184,2.6211,2.6268,2.6264,2.6294,2.6282,2.6286,2.6357,2.6375,2.6419,2.6439,2.6428,2.6526,2.651,2.648,2.643,2.6525,2.6565,2.6581,2.6371,2.6369,2.6368,2.6367,0,0,2.6201,2.6229,2.6246,2.6263,2.6289,2.6326,2.6383,2.6424,2.6452,2.648,2.6529,2.6593,2.6566,2.659,2.6582,2.6625,2.6722,2.6591,2.6591,2.6616,2.6834,2.6857,2.6876,2.6707,2.671,2.6712,2.6833,0,2.631,2.6406,2.6395,2.6488,2.6533,2.6503,2.6553,2.6576,2.6581,2.6622,2.6628,2.6675,2.6635,2.665,2.6691,2.6701,2.6766,2.6692,2.6756,2.6758,2.6751,2.6897,2.6921,2.7033,2.6848,2.6851,2.6853,0,2.6449,2.6481,2.6578,2.66,2.6619,2.6663,2.6703,2.674,2.6768,2.6769,2.6797,2.6781,2.6842,2.679,2.6875,2.6825,2.6851,2.686,2.6864,2.6871,2.6812,2.6909,2.7068,2.7086,2.6877,2.6875,2.6873,0,2.6547,2.6615,2.6682,2.6697,2.6724,2.6757,2.677,2.6794,2.6821,2.6857,2.6875,2.6917,2.6941,2.6975,2.6973,2.6935,2.7061,2.7008,2.7066,2.7067,2.7095,2.7093,2.7262,2.7109,2.7109,2.7108,2.7108,0,2.667,2.6732,2.6727,2.6768,2.6837,2.6826,2.6896,2.6905,2.6928,2.6973,2.695,2.6994,2.6988,2.7033,2.7032,2.7105,2.7115,2.712,2.7119,2.7123,2.7123,2.714,2.7133,2.7113,2.7112,2.7111,2.711,0,2.6791,2.679,2.6862,2.6882,2.6889,2.6939,2.6957,2.6999,2.7003,2.7061,2.7074,2.7081,2.7133,2.7134,2.7194,2.7194,2.7283,2.7273,2.7273,2.7272,2.7331,2.7327,2.7519,2.7545,2.7373,2.7375,2.7376,0,2.687,2.6917,2.6942,2.697,2.6985,2.7031,2.7058,2.705,2.708,2.7117,2.7155,2.7204,2.7243,2.7328,2.7341,2.7387,2.7379,2.7444,2.7386,2.7389,2.7383,2.7381,2.7387,2.7455,2.7457,2.7459,2.746,0,2.7012,2.701,2.7049,2.709,2.7123,2.7155,2.7184,2.7209,2.7205,2.7241,2.7293,2.7324,2.7385,2.7436,2.7482,2.7498,2.748,2.7478,2.7494,2.7499,2.7498,2.7502,2.7306,2.7473,2.7472,2.7471,2.747,2.747,2.7116,2.7157,2.7182,2.7228,2.7249,2.7278,2.7318,2.7327,2.737,2.7418,2.7412,2.7471,2.7501,2.756,2.7581,2.7629,2.7607,2.763,2.7637,2.7643,2.7651,2.749,2.7637,2.7637,2.7637,2.7636,2.7636,0,2.7258,2.7273,2.7315,2.7357,2.7394,2.7372,2.7404,2.7438,2.7489,2.7518,2.7557,2.7619,2.7669,2.7686,2.7735,2.7771,2.7764,2.7784,2.7782,2.7787,2.7666,2.7648,2.7789,2.7789,2.7789,2.7789,2.7789,2.7789,2.7337,2.7406,2.7407,2.7488,2.7503,2.756,2.7581,2.7608,2.7631,2.7701,2.7742,2.7752,2.7777,2.7829,2.7875,2.7879,2.7899,2.7923,2.7924,2.7811,2.7795,2.7781,2.7764,2.7927,2.7927,2.8042,2.8043,2.8043]},{"header":{"parameterUnit":"m.s-1","parameterCategory":1,"la1":30.2991,"la2":30.254,"lo1":-89.0895,"lo2":-89.0444,"dy":0.0017,"dx":0.0017,"nx":28,"ny":28,"refTime":"2023-08-25T03:00:00:Z","depth":0,"parameterNumber":3,"parameterNumberName":"V-component_of_WINDS"},"data":[0,0,0,0,0,0,0,0,0,0,0,0,0,0,0,0,0,0,0,0,0,0,0,0,0,0,0,0,0,0,0,0,0,0,0,0,0,0,0,0,0,0,0,0,0,0,0,0,0,0,0,0,0,0,0,0,0,0,-3.8146,-3.8147,0,-3.8243,-3.8244,-3.8245,-3.8249,-3.8248,-3.8246,-3.8245,-3.834,-3.8344,-3.8347,0,0,0,0,0,0,0,0,0,0,0,0,0,-3.7965,-3.7968,-3.8146,-3.8147,-3.8149,-3.8242,-3.8244,-3.8245,-3.8249,-3.8247,-3.8246,-3.8245,-3.8339,-3.8343,-3.8348,0,0,0,0,0,0,0,0,0,0,0,0,0,-3.8051,-3.797,-3.8146,-3.8162,-3.8164,-3.8242,-3.8244,-3.8245,-3.8249,-3.8247,-3.8246,-3.8244,-3.8338,-3.8343,-3.8348,-3.8416,0,0,-3.8365,-3.8367,0,0,0,0,0,0,0,0,-3.8046,-3.8057,-3.8158,-3.8161,-3.8164,-3.8232,-3.8215,-3.8302,-3.825,-3.8217,-3.8245,-3.8243,-3.8305,-3.8313,-3.8335,-3.842,-3.8424,-3.8365,-3.8369,-3.8371,-3.8372,0,0,0,0,0,0,0,-3.804,-3.8053,-3.8184,-3.816,-3.8163,-3.8164,-3.8174,-3.8231,-3.8269,-3.822,-3.822,-3.8232,-3.8307,-3.833,-3.8337,-3.8426,-3.8365,-3.837,-3.8373,-3.8375,-3.8575,-3.8577,0,0,0,0,0,0,-3.8031,-3.8048,-3.8181,-3.8187,-3.81,-3.8169,-3.818,-3.8212,-3.8269,-3.8276,-3.8233,-3.8231,-3.8321,-3.8331,-3.8341,-3.8426,-3.8371,-3.8376,-3.8379,-3.8573,-3.8575,-3.8577,0,0,0,0,0,0,-3.8027,-3.8043,-3.8177,-3.8118,-3.8135,-3.8174,-3.8209,-3.8215,-3.8238,-3.8279,-3.8286,-3.825,-3.8321,-3.8333,-3.8398,-3.8429,-3.8378,-3.8383,-3.857,-3.8573,-3.8576,-3.8594,0,0,0,0,0,0,-3.8022,-3.8042,-3.8067,-3.8119,-3.8138,-3.8233,-3.8211,-3.8218,-3.8248,-3.8246,-3.8297,-3.8303,-3.832,-3.839,-3.8403,-3.8435,-3.8387,-3.8568,-3.8572,-3.8575,-3.8591,-3.8598,-3.8603,0,0,0,0,0,-3.8016,-3.8067,-3.8069,-3.8084,-3.8171,-3.8235,-3.8246,-3.8266,-3.825,-3.8276,-3.8304,-3.8302,-3.8424,-3.8397,-3.8412,-3.8446,-3.8566,-3.8571,-3.8575,-3.8588,-3.8596,-3.8603,0,0,0,0,0,0,-3.8016,-3.8074,-3.8076,-3.8146,-3.8186,-3.8235,-3.8269,-3.8273,-3.8317,-3.8314,-3.8335,-3.8347,-3.8412,-3.8435,-3.8404,-3.8516,-3.8493,-3.8501,-3.8498,-3.8506,-3.8512,-3.8505,-3.8392,0,0,0,0,0,-3.8024,-3.8072,-3.8119,-3.8176,-3.8197,-3.823,-3.8258,-3.827,-3.8312,-3.8328,-3.836,-3.84,-3.8447,-3.8478,-3.8524,-3.8595,-3.8607,-3.8626,-3.8632,-3.8637,-3.8644,-3.8686,-3.8696,-3.8593,-3.8593,-3.8593,0,0,-3.8041,-3.8079,-3.8107,-3.8177,-3.821,-3.8259,-3.8243,-3.8295,-3.8331,-3.8335,-3.84,-3.8425,-3.8471,-3.854,-3.8572,-3.8562,-3.8675,-3.8643,-3.8647,-3.865,-3.8692,-3.8702,-3.871,-3.8596,-3.8595,-3.8595,0,0,-3.8098,-3.8131,-3.8183,-3.8217,-3.8268,-3.829,-3.8303,-3.8353,-3.8371,-3.8436,-3.8441,-3.8485,-3.8566,-3.86,-3.8627,-3.8702,-3.8702,-3.8716,-3.8747,-3.8789,-3.8797,-3.8804,-3.8832,-3.8842,-3.8723,-3.8723,-3.8723,0,-3.8113,-3.8187,-3.8209,-3.8262,-3.8294,-3.8303,-3.8357,-3.8388,-3.845,-3.8472,-3.846,-3.8564,-3.8595,-3.8674,-3.8693,-3.8715,-3.8731,-3.871,-3.8794,-3.8802,-3.8809,-3.8836,-3.8846,-3.8724,-3.8724,-3.8724,-3.8724,0,-3.8204,-3.8255,-3.8292,-3.8354,-3.839,-3.8443,-3.8474,-3.8508,-3.8518,-3.8542,-3.861,-3.8649,-3.8704,-3.8724,-3.8733,-3.8805,-3.8798,-3.879,-3.8767,-3.882,-3.8846,-3.8856,-3.8726,-3.8726,-3.8725,-3.8725,0,0,-3.826,-3.8338,-3.8351,-3.8381,-3.8439,-3.8479,-3.8534,-3.859,-3.8619,-3.8663,-3.871,-3.8781,-3.8775,-3.8807,-3.882,-3.8856,-3.8916,-3.8844,-3.8846,-3.8857,-3.9,-3.9006,-3.9018,-3.8917,-3.8919,-3.8921,-3.8997,0,-3.8324,-3.8422,-3.8446,-3.8529,-3.8579,-3.859,-3.8638,-3.8679,-3.8704,-3.875,-3.8777,-3.8827,-3.8815,-3.8835,-3.8871,-3.8901,-3.8945,-3.8895,-3.8961,-3.8963,-3.8949,-3.9031,-3.9037,-3.9106,-3.9007,-3.9009,-3.901,0,-3.841,-3.8459,-3.8548,-3.8604,-3.8626,-3.8668,-3.8724,-3.8767,-3.8815,-3.8831,-3.8869,-3.8879,-3.8938,-3.8913,-3.8994,-3.896,-3.8989,-3.9008,-3.9011,-3.9018,-3.8989,-3.904,-3.9129,-3.914,-3.9026,-3.9025,-3.9023,0,-3.8444,-3.8532,-3.8598,-3.8623,-3.8689,-3.8719,-3.8748,-3.8794,-3.8828,-3.8876,-3.8899,-3.8953,-3.8982,-3.9024,-3.905,-3.9029,-3.913,-3.9107,-3.9145,-3.9145,-3.9165,-3.9163,-3.926,-3.9183,-3.9183,-3.9183,-3.9182,0,-3.8513,-3.8568,-3.8615,-3.8655,-3.8717,-3.8745,-3.8806,-3.8835,-3.8877,-3.8924,-3.8936,-3.898,-3.9011,-3.9059,-3.908,-3.9146,-3.9158,-3.9173,-3.9178,-3.9172,-3.9171,-3.9191,-3.9187,-3.9185,-3.9185,-3.9184,-3.9184,0,-3.8561,-3.8594,-3.8667,-3.8725,-3.8741,-3.8785,-3.8834,-3.8875,-3.8901,-3.8961,-3.8976,-3.9018,-3.9076,-3.9106,-3.9178,-3.9192,-3.9266,-3.9267,-3.925,-3.9252,-3.9289,-3.9286,-3.9402,-3.942,-3.9331,-3.9332,-3.9332,0,-3.8602,-3.8645,-3.8709,-3.8743,-3.8773,-3.8825,-3.8861,-3.8891,-3.8927,-3.8988,-3.9021,-3.908,-3.9129,-3.9221,-3.9257,-3.9313,-3.9317,-3.9354,-3.9325,-3.9319,-3.9319,-3.9316,-3.9322,-3.9359,-3.9359,-3.936,-3.9361,0,-3.8673,-3.8689,-3.874,-3.8799,-3.8841,-3.8888,-3.8934,-3.8961,-3.8998,-3.9039,-3.91,-3.9138,-3.9213,-3.9272,-3.9332,-3.9361,-3.9368,-3.937,-3.9382,-3.9377,-3.9365,-3.9374,-3.9265,-3.9367,-3.9366,-3.9366,-3.9365,-3.9365,-3.872,-3.876,-3.8813,-3.887,-3.8909,-3.8953,-3.8995,-3.9029,-3.908,-3.9145,-3.9159,-3.9224,-3.9274,-3.9355,-3.9387,-3.9438,-3.943,-3.9447,-3.9452,-3.9456,-3.9458,-3.9358,-3.9449,-3.9449,-3.9448,-3.9448,-3.9448,0,-3.8793,-3.8828,-3.8881,-3.8948,-3.8994,-3.8998,-3.9051,-3.9089,-3.9146,-3.9193,-3.9242,-3.9313,-3.9372,-3.9415,-3.9475,-3.9508,-3.9512,-3.9522,-3.952,-3.9528,-3.9461,-3.9445,-3.9518,-3.9518,-3.9518,-3.9518,-3.9518,-3.9518,-3.8836,-3.8905,-3.8928,-3.9017,-3.9052,-3.9116,-3.9147,-3.9188,-3.9226,-3.9306,-3.9355,-3.9383,-3.943,-3.9494,-3.9548,-3.9559,-3.9581,-3.9591,-3.9603,-3.9539,-3.9532,-3.9525,-3.951,-3.9595,-3.9595,-3.9665,-3.9666,-3.9666]}]]